GFSGBSN_con_lsi_057.txt.gz
Lid_Strength_Index
3 3 3 3 4 4 4 3 4 4 4 4 4 4 3 4 4 4 3 4 4 4 4 4 4 3 6 10 10 5 -2 -1 0 4 5 7 8 9 10 9 8 9 8 7 6 6 6
3 3 3 3 3 3 3 4 4 4 4 4 4 3 3 4 3 3 3 4 4 4 3 3 4 3 7 13 7 5 0 1 2 5 6 7 8 8 9 10 8 7 8 8 7 7 6
3 3 3 3 3 4 4 4 4 4 4 4 4 4 4 4 4 4 4 4 4 3 2 2 3 4 7 9 5 5 5 3 2 4 7 6 7 8 9 9 7 9 11 10 8 7 7
3 4 4 4 4 4 4 4 4 4 4 4 4 4 4 4 4 4 4 5 4 3 3 3 2 4 9 4 4 4 6 6 2 3 7 5 7 9 10 8 9 11 12 14 10 8 7
4 4 4 4 4 4 4 4 4 4 4 4 4 4 4 4 4 5 5 5 3 3 2 2 5 7 9 2 5 6 5 6 4 5 6 4 8 11 10 11 13 14 15 13 12 7 8
4 4 4 4 4 4 4 4 4 4 4 4 4 4 4 5 5 5 5 4 4 2 2 3 3 9 9 10 9 8 7 4 6 7 7 9 11 13 14 14 14 15 14 13 13 9 9
4 4 4 4 4 4 4 4 4 4 4 4 4 5 5 5 5 6 7 12 13 14 13 15 13 10 11 9 8 8 8 6 6 9 12 11 14 14 12 11 11 11 12 12 11 8 10
4 4 4 4 4 4 4 4 4 4 4 5 5 5 5 6 6 6 9 12 11 11 15 11 11 12 10 11 12 9 9 8 8 11 10 12 14 11 11 10 11 11 13 13 11 9 10
4 4 4 4 4 4 4 4 4 4 5 5 5 5 5 5 5 8 10 10 9 12 16 13 11 11 11 12 12 10 9 10 10 10 10 12 11 9 10 11 11 11 12 13 12 10 8
4 4 4 4 4 4 4 4 4 5 5 5 5 4 5 4 8 7 7 7 6 8 16 13 12 10 10 10 12 8 8 10 10 10 9 11 8 9 10 11 10 13 9 10 11 13 14
4 4 4 4 4 4 4 4 5 4 4 4 4 3 3 4 8 8 6 6 7 10 19 9 10 7 10 12 11 10 7 9 12 12 12 11 10 10 11 10 9 10 8 9 11 14 14
4 4 4 4 4 4 4 5 4 4 3 3 3 3 2 5 7 6 6 7 10 15 18 12 10 11 11 10 10 9 10 8 8 10 11 11 8 9 9 8 7 7 9 10 12 14 16
4 4 4 4 4 4 5 4 3 2 2 2 3 3 4 4 9 6 7 10 15 18 12 14 14 12 12 12 11 10 11 11 13 14 15 12 11 9 8 10 8 8 12 16 17 17 16
4 4 4 4 4 4 4 3 2 2 2 2 3 4 5 3 5 6 9 13 19 13 15 13 13 12 13 11 12 11 12 13 10 12 15 17 15 10 9 10 10 10 12 16 20 19 17
4 4 4 4 4 4 4 2 2 2 2 2 3 7 7 6 5 7 12 17 17 14 13 13 13 14 14 12 12 12 12 13 10 11 15 16 16 11 10 9 8 11 12 10 15 17 17
5 5 5 4 4 3 2 2 1 1 2 2 6 10 9 5 7 10 14 15 15 11 12 12 15 13 16 14 14 14 13 10 11 9 10 13 17 12 11 9 9 9 10 14 15 18 19
5 5 5 5 4 2 2 1 1 1 2 3 10 11 7 5 9 12 16 16 12 10 10 13 14 15 14 14 14 14 12 10 9 11 10 12 14 14 11 12 12 12 11 13 12 15 16
5 5 5 5 3 2 1 1 1 2 3 6 12 14 8 8 13 14 15 13 10 10 9 11 11 13 13 12 13 13 12 10 7 9 12 10 13 16 14 10 11 12 11 13 14 16 17
5 5 5 4 2 1 1 1 2 2 3 6 11 13 8 9 16 16 13 12 10 10 10 11 11 11 11 13 14 11 10 7 7 8 11 11 14 18 15 14 13 14 10 10 12 15 16
5 5 5 3 2 1 1 1 2 3 3 9 10 15 12 12 13 13 14 13 12 8 9 9 9 9 11 13 11 11 11 8 7 8 7 9 13 16 18 17 15 17 15 13 13 14 16
5 5 3 3 1 1 1 1 2 3 3 8 13 15 13 15 15 13 12 13 12 12 8 8 9 9 11 13 13 12 10 9 8 7 8 11 15 15 15 15 16 16 16 15 15 13 13
4 4 3 1 1 1 1 1 2 2 4 10 13 13 12 12 11 11 12 12 12 10 10 10 11 9 9 12 11 12 11 11 10 9 10 11 15 14 17 16 16 17 15 13 13 12 13
5 3 1 1 1 1 2 2 1 2 4 8 9 8 10 11 11 12 12 11 11 9 9 8 9 10 10 9 7 7 8 8 8 10 11 13 14 17 20 15 14 15 13 13 11 11 12
4 2 1 1 1 2 1 1 1 2 3 5 6 7 11 13 12 11 11 10 10 9 10 8 7 9 7 4 6 7 8 9 8 8 9 13 14 16 20 16 19 13 11 11 11 11 11
3 1 2 2 2 1 1 1 1 2 3 5 5 7 10 13 11 11 10 10 9 9 8 8 7 6 5 7 11 13 13 12 9 10 11 10 14 18 19 16 13 12 13 13 13 13 11
2 1 1 1 1 1 1 1 2 2 3 4 5 5 8 11 11 9 10 10 11 10 9 8 5 5 6 9 11 15 17 15 15 13 11 11 13 16 17 18 20 14 12 10 10 15 11
2 1 2 1 2 2 1 1 2 2 2 4 5 4 8 11 9 9 10 10 8 9 10 8 8 8 7 11 14 15 16 12 16 16 15 14 15 17 17 17 15 12 12 10 16 16 12
1 2 2 2 2 1 1 2 2 2 2 4 5 4 7 10 9 8 7 9 8 8 10 8 9 9 10 12 13 14 14 13 14 13 14 15 17 16 15 17 19 12 11 15 14 13 12
1 2 2 2 1 1 2 2 2 2 2 3 5 3 4 8 8 6 6 5 6 6 7 6 8 8 9 12 12 12 13 13 14 16 11 15 15 16 17 15 12 11 10 11 12 13 12

GFSGBSN_con_lsi_060.txt.gz
Lid_Strength_Index
3 3 3 3 3 4 3 3 3 3 3 3 3 4 3 3 3 3 3 3 3 3 3 3 3 3 6 11 11 5 -1 -0 0 4 3 5 6 8 9 8 7 9 9 7 7 6 7
3 3 3 3 4 3 4 4 4 4 4 4 4 3 4 4 3 3 3 3 4 4 3 2 3 3 8 14 8 4 1 1 1 5 4 7 5 8 8 9 8 7 7 7 7 8 6
3 3 3 4 4 4 4 4 4 4 4 4 4 4 4 4 4 4 4 4 4 3 3 2 3 4 8 10 5 4 4 2 3 5 7 7 7 7 9 10 8 7 11 11 10 8 8
3 4 4 4 4 4 4 4 4 4 4 4 4 4 4 4 4 4 4 4 4 3 3 3 2 5 9 4 4 4 6 5 2 4 7 7 7 9 10 9 10 11 12 14 11 9 7
4 4 4 4 4 4 4 4 4 4 4 4 4 4 4 4 4 5 5 5 3 2 2 2 6 8 11 3 6 8 6 6 4 5 5 5 8 11 11 12 13 14 15 14 13 9 8
4 4 4 4 4 4 4 4 4 4 4 4 4 4 5 5 5 5 5 5 1 2 2 3 4 11 10 11 10 9 9 4 5 5 7 9 11 13 14 14 16 14 16 14 13 10 9
4 4 4 4 4 4 4 4 4 4 4 4 4 5 5 5 5 6 7 12 13 14 12 15 14 13 11 10 9 9 9 6 7 8 11 11 14 14 13 12 11 11 12 14 13 10 10
4 4 4 4 4 4 4 4 4 4 4 4 5 5 5 5 6 6 10 12 12 11 15 12 12 12 11 12 12 10 9 8 9 11 11 13 14 12 11 12 11 11 12 14 13 10 10
4 4 4 4 4 4 4 4 4 5 5 5 5 5 5 5 6 9 11 11 9 12 16 13 12 12 11 12 12 12 10 11 11 11 12 14 12 10 12 13 13 13 12 13 12 10 9
4 4 4 4 4 4 4 4 4 5 5 5 5 5 5 5 9 9 10 8 7 8 16 13 12 10 9 10 13 9 9 11 11 11 10 11 9 10 12 13 12 16 11 9 11 13 14
4 4 4 4 4 4 4 5 5 5 5 5 4 4 4 4 8 8 7 6 8 11 20 10 11 8 9 11 11 10 8 9 12 12 12 12 11 10 12 12 11 13 10 10 10 13 14
5 4 4 4 4 4 5 5 5 5 4 4 4 3 3 6 8 6 6 7 10 16 19 13 11 12 12 12 11 9 7 7 7 10 10 12 10 10 9 9 10 9 10 11 11 13 16
5 5 4 5 5 4 5 5 5 5 3 3 3 3 4 4 8 6 7 11 16 19 12 14 14 13 14 14 12 11 10 11 12 14 14 11 10 10 9 11 10 10 12 16 18 17 16
5 4 4 4 5 5 5 5 4 4 2 3 4 4 6 5 5 6 10 13 19 14 16 13 13 13 15 13 14 12 13 13 10 11 14 16 15 11 10 11 12 12 13 16 21 20 15
5 4 4 4 5 5 5 5 3 2 2 3 4 9 9 7 5 9 12 17 17 15 13 14 15 16 16 14 13 14 14 12 11 11 15 16 15 10 10 9 11 12 13 11 15 17 17
5 5 5 4 5 4 5 4 2 2 2 3 8 11 10 6 7 11 14 16 16 12 11 13 16 15 17 16 15 16 15 11 10 9 10 12 17 12 11 9 9 12 10 14 15 19 20
4 5 5 5 4 4 4 3 2 2 3 4 11 12 9 6 9 12 17 17 13 10 10 14 15 16 16 15 15 16 14 11 9 9 9 12 13 14 11 13 13 12 13 13 12 14 17
4 4 4 4 4 4 2 1 2 2 3 6 12 16 9 8 13 15 16 14 10 11 10 12 13 14 15 14 15 15 14 11 8 9 12 11 12 15 14 11 10 12 14 13 15 16 15
3 4 4 4 4 2 1 1 2 3 3 6 11 12 9 10 16 16 14 13 11 12 11 11 12 12 13 14 15 13 11 8 7 9 11 10 14 17 15 14 13 14 14 15 14 14 14
4 4 4 4 3 1 1 1 2 2 3 8 11 15 13 12 14 13 13 14 13 10 10 10 11 11 13 14 13 13 11 8 7 8 7 8 12 15 18 16 15 16 15 15 17 16 14
4 4 4 3 2 1 1 1 2 2 3 8 13 15 13 14 13 12 12 12 13 13 9 9 10 10 11 14 14 13 11 10 8 7 8 10 14 14 13 13 14 15 16 16 16 16 17
4 4 4 1 1 1 1 1 1 2 4 10 13 12 10 11 10 11 12 12 12 10 10 11 11 10 10 12 12 13 12 12 11 10 10 9 15 12 14 13 13 15 14 15 15 14 14
4 4 2 2 2 1 1 1 1 2 4 9 8 7 9 10 11 12 12 11 11 9 9 8 9 10 11 9 7 7 8 9 10 10 11 11 12 14 17 14 15 17 15 13 12 12 12
4 3 2 2 1 1 1 1 1 2 3 5 6 7 10 13 11 11 11 10 9 9 10 8 7 9 7 4 6 8 8 8 9 9 9 11 12 13 17 15 20 13 9 10 12 13 12
2 1 1 1 1 1 1 1 2 2 2 4 5 6 10 13 11 10 10 10 9 9 8 8 7 6 6 8 12 14 14 13 11 9 10 9 12 15 18 17 14 12 11 12 14 14 12
1 1 1 1 1 1 1 1 2 2 2 4 4 5 8 11 11 9 10 9 11 10 9 9 7 6 7 9 12 15 17 14 14 12 9 10 11 14 15 18 20 14 11 10 10 16 12
1 2 2 1 1 1 1 2 2 2 2 4 5 4 7 10 8 9 10 10 8 9 10 8 9 10 8 11 14 15 16 12 16 15 15 14 14 17 17 17 15 12 11 9 15 16 12
1 2 2 2 2 2 2 2 2 2 2 4 6 5 6 9 8 7 7 8 8 8 10 9 11 10 10 13 13 14 14 13 14 12 13 14 15 16 15 17 19 12 10 14 13 12 12
2 2 3 3 2 2 2 2 2 2 2 3 6 3 4 7 8 7 6 5 5 4 7 8 10 9 9 12 12 13 14 13 13 16 11 15 13 15 15 15 12 11 11 11 11 12 12

GFSGBSN_con_lsi_063.txt.gz
Lid_Strength_Index
3 3 3 3 3 3 3 3 3 3 3 3 3 3 3 3 4 4 3 3 3 3 3 3 3 3 4 8 9 4 -1 -1 -0 1 2 3 5 5 7 7 7 9 8 6 6 6 6
3 3 3 3 3 3 4 4 3 4 4 4 3 3 4 4 3 3 3 4 4 4 3 2 3 3 6 11 6 3 0 1 1 2 2 3 4 4 6 7 7 6 6 7 6 6 6
3 3 3 3 3 4 4 4 4 4 4 4 4 4 4 4 4 4 4 4 4 3 2 2 3 4 7 9 4 3 2 1 1 1 3 3 2 4 5 8 5 5 8 7 8 8 7
3 3 3 3 3 4 4 4 4 4 4 4 4 4 4 4 4 4 4 4 4 3 2 2 2 4 8 4 2 3 3 1 1 1 3 4 4 4 6 6 8 9 9 11 8 8 6
3 3 3 3 4 4 4 4 4 4 4 4 4 4 4 4 4 4 5 4 2 2 2 2 3 5 10 4 8 7 5 6 2 2 4 4 5 7 7 8 9 9 12 12 11 8 7
3 3 3 4 4 3 4 4 4 4 4 4 4 4 4 4 5 5 5 4 1 2 2 2 4 8 8 10 8 8 6 2 4 5 6 7 7 9 9 9 13 11 11 10 12 9 7
4 4 4 4 4 4 4 4 4 4 4 4 4 5 5 5 5 6 6 8 9 10 9 11 11 11 10 8 8 8 7 4 5 7 10 8 10 12 10 9 9 9 9 11 9 9 8
4 4 4 4 4 4 4 4 4 4 4 4 4 5 5 5 5 6 7 9 9 9 12 10 11 11 9 9 10 9 6 6 6 9 8 10 12 9 9 10 9 9 9 10 8 9 9
4 4 4 4 4 4 4 4 4 5 5 4 4 5 5 5 6 7 8 8 7 8 12 11 9 9 9 9 10 10 8 9 7 9 9 10 10 8 10 11 11 10 10 9 9 9 8
5 4 4 4 4 4 4 5 5 5 5 5 5 5 5 6 7 7 7 6 5 6 12 11 9 8 7 8 10 7 6 8 9 8 8 8 7 9 10 11 10 12 9 9 9 10 13
5 4 4 4 4 4 4 5 5 5 5 5 5 5 5 6 6 6 5 4 6 8 15 10 9 6 7 8 8 8 4 6 9 9 9 9 8 9 10 10 10 11 9 9 9 9 11
4 4 4 4 4 4 4 5 5 5 5 5 5 4 4 5 5 4 4 5 7 12 16 12 10 10 10 9 9 8 6 5 5 8 8 8 8 7 8 8 9 9 9 9 9 10 13
4 4 4 5 4 4 4 5 5 5 5 5 5 5 4 4 6 4 5 7 12 15 11 13 12 10 11 11 10 10 9 9 10 11 11 9 9 8 7 8 8 9 11 13 14 13 15
4 4 4 4 4 4 5 4 4 5 5 4 4 5 5 4 4 5 6 9 15 13 13 11 11 11 12 11 11 11 10 11 9 9 11 12 12 9 8 8 9 9 10 13 16 15 13
3 3 3 4 4 4 4 4 4 4 3 3 4 6 5 5 5 6 7 13 13 13 11 12 12 13 13 12 12 12 11 11 10 10 11 12 12 8 8 8 8 9 11 9 12 11 13
3 3 3 3 4 3 4 4 3 2 3 3 6 8 6 5 6 7 9 13 12 10 10 11 14 12 14 13 13 13 13 10 10 9 8 11 14 10 8 8 7 8 7 11 11 15 16
4 3 3 4 4 4 3 2 2 2 3 3 7 8 6 5 6 8 12 13 11 9 9 12 13 13 13 14 13 13 13 10 9 9 8 10 12 12 10 10 10 10 10 9 9 11 14
3 3 3 3 4 4 3 1 2 2 3 4 7 10 5 6 9 11 12 12 10 10 8 10 11 11 12 12 13 13 13 11 8 8 11 9 11 14 13 9 8 10 10 9 13 14 12
3 3 3 4 4 3 2 1 2 2 3 5 9 9 6 6 12 12 11 12 11 10 10 10 11 10 10 12 13 12 11 8 7 8 9 8 12 15 13 9 8 11 10 10 10 10 13
4 4 4 4 3 2 2 1 2 2 3 5 8 11 9 8 9 11 13 12 12 9 10 8 9 8 10 11 10 12 11 8 7 7 6 7 11 12 15 13 11 12 12 11 12 12 12
4 4 4 3 2 2 1 1 1 2 3 5 9 11 10 11 10 11 11 12 13 12 9 8 9 9 10 12 10 11 10 8 8 6 7 8 12 11 11 11 11 11 13 13 13 12 13
4 4 2 2 2 1 1 1 1 2 4 6 9 9 8 10 10 11 11 12 12 11 10 10 10 9 9 12 11 11 10 9 9 8 9 8 12 11 12 11 10 12 11 12 12 12 12
3 2 1 1 1 1 1 1 1 2 4 6 7 6 9 10 10 11 12 11 10 8 7 7 8 10 10 9 7 7 6 7 7 8 10 10 11 12 14 10 12 14 10 11 11 10 10
1 1 1 1 1 1 1 1 2 2 3 4 5 6 9 11 10 11 10 9 9 8 10 8 7 9 6 4 4 5 6 7 7 7 7 11 11 11 13 11 18 10 7 7 9 10 9
1 1 1 1 1 1 1 2 2 2 2 4 4 6 9 12 10 10 10 9 8 8 9 9 7 5 4 6 9 11 11 10 9 8 8 7 10 13 15 15 12 12 10 9 10 11 9
2 2 2 2 2 2 2 2 2 2 2 2 3 4 7 10 10 9 9 7 10 10 10 9 6 5 6 8 11 14 16 13 13 11 7 8 8 12 13 18 20 14 9 7 7 13 9
2 2 2 2 2 2 2 2 2 2 2 2 3 3 7 9 7 7 9 9 7 9 11 9 8 8 7 10 13 14 15 12 15 15 14 13 13 15 14 16 14 11 9 8 15 13 10
2 2 3 3 2 2 2 2 2 2 1 2 3 3 5 7 6 6 6 8 7 8 11 9 9 9 10 12 13 13 14 13 13 12 13 13 14 15 14 16 18 12 10 12 10 9 9
2 2 2 3 2 2 2 2 2 2 2 3 5 2 3 6 6 4 4 4 5 5 7 8 9 9 9 12 11 11 13 12 13 16 11 15 12 14 13 14 10 11 10 8 8 9 9

GFSGBSN_con_lsi_069.txt.gz
Lid_Strength_Index
3 3 3 3 3 3 3 3 3 3 3 3 3 3 3 3 3 3 3 3 3 3 3 2 2 2 3 4 6 2 -3 -1 -1 1 2 3 4 4 6 5 5 6 6 5 5 5 5
3 3 3 3 3 3 3 3 3 3 3 3 3 3 3 3 3 3 3 3 3 3 3 2 2 2 2 6 4 2 0 -0 0 2 2 2 3 3 4 4 5 4 5 5 5 5 5
3 3 3 3 3 3 3 3 3 3 3 3 3 3 3 3 3 3 3 4 3 2 2 1 1 2 3 5 3 2 1 0 0 1 2 1 1 3 3 5 3 4 6 5 5 5 6
4 4 4 4 3 3 3 3 4 4 3 3 3 3 3 3 3 4 4 4 2 2 2 2 1 1 5 4 2 4 2 1 -0 0 1 1 1 2 3 3 5 6 6 8 5 5 5
4 4 4 4 4 4 4 4 4 4 4 4 4 3 4 4 4 4 4 4 1 1 2 1 1 2 6 4 5 4 3 2 1 1 1 1 2 4 4 6 7 6 8 8 7 5 5
4 4 4 4 4 4 4 4 4 4 4 4 4 4 4 4 4 5 5 5 2 2 1 1 2 5 6 7 6 4 3 2 2 2 3 3 4 5 5 6 10 8 8 7 7 6 5
4 4 4 4 4 4 4 4 4 4 4 4 4 4 4 5 5 5 5 3 3 5 5 7 7 7 7 5 4 5 3 2 2 4 6 5 7 8 6 6 6 6 7 7 6 5 6
3 3 4 4 4 4 4 4 4 4 4 4 4 4 5 5 5 5 4 6 6 6 8 7 7 7 6 5 7 5 2 4 5 7 5 6 8 6 5 5 6 7 7 7 6 5 6
3 3 3 3 3 3 3 4 4 4 4 4 4 4 5 5 5 5 4 5 3 4 8 7 7 7 7 6 7 7 5 4 5 7 6 7 6 5 6 6 7 7 8 7 7 6 6
2 2 3 2 2 2 3 3 3 3 4 4 4 4 5 6 6 3 4 3 3 4 9 9 8 7 6 6 8 6 5 5 6 7 6 6 5 6 7 7 6 8 6 7 7 8 10
2 2 2 3 2 2 2 3 2 3 4 4 4 5 6 7 3 4 4 2 3 4 13 9 7 5 6 7 7 7 4 5 7 6 6 7 7 7 7 7 6 8 5 7 7 8 8
2 3 3 3 3 3 3 3 2 3 3 3 4 5 6 4 3 3 2 2 3 9 12 9 7 7 7 7 7 6 6 4 4 6 5 6 4 5 6 5 5 5 6 6 7 8 11
2 3 3 3 3 3 3 3 3 4 4 4 5 6 5 2 3 1 1 2 8 11 7 9 8 7 7 7 7 7 7 6 7 9 8 7 6 5 5 7 5 6 8 11 12 12 12
2 3 3 3 3 3 3 3 3 3 4 5 5 5 3 1 0 1 1 5 11 8 8 7 8 8 9 7 7 7 7 8 6 6 8 10 10 6 5 6 7 7 8 11 15 13 11
3 3 3 3 3 3 3 3 4 4 4 3 4 0 -0 0 0 1 4 9 9 8 7 8 8 9 8 8 9 8 8 7 6 6 9 9 9 6 6 5 6 7 9 6 9 9 11
3 3 3 3 3 3 3 4 4 3 3 2 1 1 1 -0 -0 2 6 9 7 6 7 7 9 8 9 8 9 8 8 7 8 7 6 7 10 6 6 5 5 6 6 10 9 13 14
3 3 3 2 2 2 3 2 2 2 2 2 1 3 1 -0 1 4 8 7 7 6 6 8 8 8 8 9 8 9 8 7 7 7 7 7 8 8 6 8 8 8 9 8 8 9 12
3 3 2 1 2 1 1 1 1 2 3 2 2 5 0 0 5 4 7 7 9 7 6 7 7 7 8 8 9 9 9 7 6 7 8 7 8 10 9 6 5 6 7 8 11 11 9
2 2 1 2 1 1 0 0 1 2 2 2 3 3 1 1 7 7 6 7 7 7 7 7 7 6 6 7 10 8 7 5 6 7 8 6 9 12 10 8 6 8 7 7 7 8 10
2 1 1 1 1 0 0 0 2 2 3 2 3 6 3 3 4 6 7 8 8 7 6 6 6 6 7 8 7 9 8 6 6 6 6 7 8 10 11 10 8 9 8 7 8 10 10
1 1 1 1 1 0 1 1 2 3 3 2 3 5 5 7 6 6 6 7 8 9 6 6 7 8 9 10 9 9 7 7 6 5 6 6 10 9 9 8 9 9 8 8 9 9 11
1 1 2 1 1 1 1 2 2 2 3 2 4 4 4 6 7 7 8 10 10 8 8 9 9 8 8 10 9 10 8 9 9 7 7 6 11 9 10 8 9 10 9 9 8 8 9
1 1 2 2 2 2 2 2 2 2 3 2 2 3 4 7 7 7 8 9 9 7 7 7 8 8 9 8 6 6 5 5 5 8 9 10 10 11 13 9 9 11 9 9 8 7 7
1 1 2 2 2 2 2 2 2 2 2 1 2 3 4 8 7 8 8 8 8 8 9 7 7 9 6 4 5 4 5 5 5 5 5 9 10 11 13 10 16 9 6 7 7 7 6
2 2 2 2 2 2 2 2 2 2 2 1 2 3 4 7 6 7 8 8 6 6 7 7 6 6 4 6 8 10 9 9 7 6 6 6 9 13 15 13 10 8 7 8 10 9 6
2 2 2 2 2 2 2 2 2 2 2 2 2 1 2 6 7 6 7 7 8 8 7 7 5 4 5 7 9 13 14 12 12 11 6 6 6 12 12 14 15 9 7 6 6 11 5
2 1 2 2 2 2 1 2 2 2 2 2 2 0 2 5 4 4 6 7 5 8 9 7 6 6 5 10 12 14 13 12 14 14 12 11 12 13 13 14 11 6 6 5 12 11 7
1 1 1 2 2 1 1 2 2 2 2 1 1 -1 2 4 3 3 3 5 4 5 9 6 7 7 8 12 12 12 13 12 13 12 12 12 14 14 12 14 16 5 6 9 7 7 7
2 2 1 2 2 1 2 2 2 1 1 1 1 -1 -1 3 3 1 1 2 3 3 4 5 6 7 7 10 10 10 13 11 12 16 9 14 11 13 10 10 6 6 6 5 4 7 7

GFSGBSN_con_lsi_072.txt.gz
Lid_Strength_Index
3 3 3 3 2 2 3 3 3 2 2 3 3 3 3 3 3 2 2 2 3 2 2 2 2 2 3 4 5 1 -2 -1 -0 2 4 3 4 5 7 6 5 6 6 5 5 5 5
4 4 4 4 3 3 3 3 3 3 3 3 3 2 2 3 3 3 3 3 3 2 2 2 1 2 4 6 3 2 1 0 1 3 2 3 4 3 5 5 6 5 5 5 5 5 5
4 4 4 4 4 4 4 4 3 3 3 3 3 3 3 3 3 3 3 3 3 1 1 1 1 2 3 4 3 2 2 1 1 2 3 2 2 4 4 5 4 4 6 5 5 5 6
4 4 4 4 4 4 4 4 4 4 4 3 3 3 3 3 3 3 4 4 3 1 1 1 1 2 5 3 2 3 2 1 0 0 2 1 1 3 4 3 4 6 6 9 6 5 5
3 3 3 3 3 3 4 4 4 4 4 4 4 3 3 3 4 4 4 4 3 1 1 1 1 2 5 3 5 4 2 2 1 1 1 1 2 4 4 7 7 7 9 8 7 5 6
3 3 3 3 3 3 3 4 4 4 4 4 4 4 4 4 4 5 5 4 2 2 1 1 1 4 4 6 5 4 3 2 2 3 3 4 4 6 6 7 11 9 9 8 8 6 6
2 2 3 3 2 2 2 3 3 3 4 4 4 4 4 4 5 5 5 3 4 4 4 6 6 6 6 5 4 5 3 3 2 4 7 5 7 9 7 6 6 7 8 8 7 5 6
2 2 2 3 3 2 2 2 2 3 3 3 4 4 5 5 5 5 5 5 6 5 8 5 6 6 6 5 7 5 2 4 5 7 6 6 9 6 5 6 6 7 8 8 7 6 6
2 2 2 2 2 3 3 3 3 3 2 3 4 4 5 5 5 5 4 5 3 4 8 6 6 7 6 6 7 7 4 4 5 7 7 8 7 5 6 7 7 7 8 8 8 6 6
2 2 2 2 2 3 3 3 3 3 3 2 3 4 4 5 6 4 4 3 3 4 10 9 8 7 6 6 8 5 5 5 6 7 6 7 5 6 7 7 7 9 6 7 7 8 10
2 2 2 2 3 3 3 3 3 3 3 3 3 3 5 5 5 4 4 3 3 5 13 8 8 5 5 7 7 7 5 6 8 7 6 7 7 7 7 7 6 8 6 7 7 8 8
2 2 3 3 3 3 3 3 3 3 3 4 4 4 5 3 4 3 3 2 3 9 13 9 7 8 7 6 6 6 6 5 5 7 6 7 5 5 6 5 6 5 6 7 7 8 11
2 2 2 3 3 3 3 3 3 3 4 4 4 5 5 3 3 1 1 2 8 11 6 9 8 7 7 7 7 7 7 7 8 10 9 8 7 6 5 7 6 6 8 12 13 12 13
2 2 3 3 3 3 2 2 3 4 4 4 5 5 1 0 -0 0 1 6 12 8 8 7 7 7 8 6 7 7 7 8 6 7 8 10 11 7 5 6 8 7 8 11 15 13 12
2 3 3 2 2 2 2 2 2 3 3 3 3 -0 1 -0 -1 0 4 10 9 8 7 7 7 8 8 7 8 7 7 8 6 6 9 10 10 6 6 5 6 8 9 7 10 9 11
2 3 2 2 2 2 2 1 1 2 2 3 2 2 1 -1 -1 2 6 9 7 7 7 7 9 7 9 8 8 8 8 6 7 6 5 8 11 7 6 5 5 7 6 10 9 14 15
3 2 2 1 2 2 1 1 1 1 2 3 2 4 1 -1 -0 4 8 8 7 5 6 7 8 8 8 8 8 8 8 7 6 6 6 7 9 9 7 8 8 8 9 8 9 10 13
3 2 1 1 1 1 1 1 1 2 3 1 2 6 1 -0 6 5 8 7 8 6 5 6 6 7 8 7 8 8 8 7 5 6 8 7 8 11 9 7 6 6 8 8 12 13 11
2 1 1 1 1 1 1 1 1 3 3 3 4 4 0 1 8 7 6 6 6 6 6 6 7 6 6 8 10 8 7 5 5 6 7 7 9 12 11 8 7 8 7 7 8 9 12
2 1 1 1 1 1 1 2 2 3 3 3 4 7 4 3 4 6 7 7 7 5 6 6 6 6 7 8 7 8 8 6 5 6 5 5 9 10 13 10 8 9 8 8 8 10 10
1 1 1 1 1 1 1 2 2 2 3 2 3 5 4 8 6 6 6 6 8 8 6 6 7 8 8 10 9 9 7 7 6 5 6 6 10 9 9 8 9 9 9 8 9 8 10
1 1 1 1 1 1 1 1 2 2 3 2 5 5 4 5 5 6 7 8 8 8 7 7 9 8 8 9 9 10 8 7 8 6 7 7 12 9 10 9 9 10 9 9 8 8 8
1 1 2 2 1 1 1 2 1 2 3 2 2 2 3 6 6 7 8 8 8 7 6 6 7 8 8 8 6 6 5 5 6 7 8 9 11 12 14 9 10 12 9 9 8 7 8
1 1 2 1 1 1 2 1 1 1 2 1 2 3 4 7 6 7 7 7 7 7 8 6 6 8 6 4 4 5 5 5 5 6 5 9 11 12 14 12 18 10 6 7 8 8 7
1 1 1 1 1 1 1 1 1 1 2 1 1 3 4 7 6 6 6 6 6 6 6 7 6 5 4 6 8 9 9 9 8 6 6 6 9 13 15 15 11 9 7 8 9 8 6
1 1 1 2 1 1 1 1 1 1 2 1 1 -0 3 6 7 5 6 6 7 7 7 7 4 4 5 7 9 13 14 12 12 10 6 7 7 12 12 16 17 9 7 5 6 11 6
1 1 1 1 1 1 1 1 1 1 1 1 0 -1 2 6 4 4 6 7 5 6 7 6 6 6 5 9 12 14 14 12 15 14 12 12 11 14 14 14 11 7 6 5 12 10 6
2 1 1 2 1 1 1 1 1 0 1 1 0 -1 2 5 4 3 3 4 4 5 8 6 7 7 7 11 12 12 13 12 13 11 12 13 14 13 13 15 16 6 7 10 8 6 5
2 1 1 2 1 1 1 2 1 1 1 1 2 -1 -1 3 4 1 1 1 2 2 4 5 6 6 6 8 9 10 12 11 12 16 9 14 12 14 13 12 7 6 7 5 5 6 5

GFSGBSN_con_lsi_075.txt.gz
Lid_Strength_Index
3 4 4 4 4 4 4 4 4 3 3 3 3 2 2 2 2 2 2 2 2 3 2 2 2 2 4 6 6 1 -2 -2 -0 2 5 7 5 6 8 7 6 7 6 6 5 6 7
3 3 3 3 3 4 4 4 4 4 4 4 3 3 2 2 2 2 2 3 3 3 1 1 2 1 6 9 4 -0 -0 0 2 4 5 7 5 4 6 6 7 6 6 6 6 5 6
3 3 3 3 3 3 3 4 4 4 4 4 4 3 3 3 3 3 3 3 3 3 1 0 1 2 4 6 3 4 4 2 1 4 6 5 3 5 5 7 5 5 8 8 7 8 6
2 2 3 2 2 2 2 3 3 4 4 4 4 4 3 3 3 3 3 4 3 3 1 1 1 3 6 1 4 4 5 4 1 2 4 4 4 4 5 5 6 8 9 11 8 6 7
2 2 2 2 2 2 2 2 2 3 3 3 4 4 4 4 4 4 4 4 3 2 1 1 3 5 7 3 6 5 5 4 2 3 3 4 5 6 6 9 10 9 13 11 9 7 7
2 2 2 2 2 2 2 3 3 2 2 3 3 3 4 4 5 5 5 4 3 3 1 1 2 6 4 6 7 5 5 4 3 4 5 6 6 8 9 11 14 12 12 11 11 9 8
2 2 2 2 2 2 2 3 3 3 3 3 3 3 4 4 5 5 6 7 6 7 6 6 7 5 6 6 5 5 4 6 4 5 8 6 10 11 10 8 8 8 9 10 9 7 10
2 2 2 2 2 2 2 3 3 3 3 3 3 3 3 4 5 5 7 8 8 8 10 7 6 6 7 8 8 6 5 7 6 8 7 9 11 8 6 7 8 9 10 10 8 7 9
1 2 2 2 2 2 2 3 3 3 3 3 3 3 3 4 5 6 7 6 5 6 11 8 7 8 8 8 9 7 6 6 7 8 8 10 8 6 7 8 8 9 10 10 10 8 8
2 2 2 2 2 2 3 3 3 3 3 3 3 3 3 4 6 5 6 5 5 6 14 10 10 8 8 8 10 6 7 9 8 8 8 8 6 7 8 8 8 12 8 8 8 10 14
2 2 2 2 3 3 3 3 3 3 3 4 3 3 4 5 7 6 5 5 5 8 17 9 9 6 7 10 9 9 6 8 10 9 9 10 8 8 9 8 7 9 7 8 9 11 13
2 2 2 3 3 2 3 2 2 2 3 3 4 4 4 4 6 5 3 4 6 13 14 10 8 9 10 9 8 7 7 7 7 9 9 9 7 8 8 7 7 6 8 9 10 12 15
2 2 3 3 2 2 2 2 2 2 2 3 4 5 5 4 5 3 3 4 11 14 8 10 10 8 9 10 8 8 9 10 12 15 14 10 9 8 7 10 8 9 12 16 16 16 15
2 2 3 3 2 2 2 2 2 2 1 3 4 3 2 2 1 1 3 8 14 9 10 8 8 8 9 8 9 8 9 10 8 10 12 14 14 10 8 10 10 10 12 15 18 17 15
2 2 3 2 2 2 2 2 2 1 2 2 3 2 2 1 0 1 6 12 11 10 9 9 8 9 10 8 8 8 10 10 8 8 13 13 13 8 7 7 8 11 12 10 14 13 14
2 2 2 2 2 2 2 1 1 1 2 3 4 3 2 1 0 3 8 10 9 8 8 8 11 9 11 9 9 11 10 8 8 7 9 11 15 10 8 8 8 10 9 14 14 17 17
2 2 2 1 1 1 1 2 2 2 2 3 4 5 3 1 2 6 10 10 8 7 7 8 10 10 10 10 10 10 10 9 7 8 8 11 13 12 9 11 12 11 12 12 13 14 15
2 2 2 1 1 1 1 2 2 3 3 3 3 8 2 2 7 7 9 8 9 7 5 7 7 8 9 9 10 11 10 9 7 7 10 9 12 14 12 8 8 10 11 11 14 15 13
2 2 1 1 1 1 1 2 2 3 3 5 6 5 2 2 9 9 7 7 7 8 8 8 8 8 8 9 12 9 8 6 6 7 9 9 13 16 14 11 11 11 10 10 12 13 15
2 2 1 1 1 1 1 2 2 2 3 4 5 8 5 4 5 7 8 8 8 5 7 7 7 7 9 10 9 10 9 7 6 6 4 7 12 14 16 13 11 12 11 10 12 15 14
2 1 1 1 1 1 1 2 2 2 3 3 5 7 6 9 8 7 7 8 8 9 6 6 7 8 10 12 11 11 9 9 7 5 7 9 13 11 10 10 10 11 11 10 11 12 15
2 1 1 1 1 1 1 1 2 2 3 2 6 7 6 7 6 7 8 9 9 8 8 8 9 8 8 12 11 11 10 10 10 8 9 9 13 12 13 10 10 12 10 10 10 9 11
1 1 1 1 1 0 1 1 1 2 2 3 3 3 5 7 7 8 9 8 8 7 7 6 7 8 9 8 7 7 8 8 9 10 10 11 13 14 16 11 11 14 11 10 10 9 10
1 1 1 1 1 1 0 1 1 1 2 2 2 3 7 9 8 8 7 7 7 7 8 6 7 9 7 5 6 7 7 8 8 8 8 10 12 12 16 13 19 11 8 9 9 8 8
1 1 1 1 1 1 1 0 0 1 2 2 1 3 6 9 7 7 7 7 6 6 7 6 6 6 5 7 10 11 12 11 10 8 8 9 11 14 16 16 13 10 9 9 10 11 8
1 1 1 1 1 1 1 1 0 0 1 1 1 1 4 8 8 5 7 6 8 8 7 6 4 5 6 8 10 14 17 13 14 11 8 8 9 13 15 17 18 11 8 6 8 14 7
2 1 1 1 1 1 1 1 0 -0 1 1 1 -0 3 7 4 4 7 7 5 7 8 7 6 7 5 10 13 15 14 11 15 15 14 13 13 15 15 17 14 9 7 6 13 14 7
1 1 1 2 1 1 1 1 0 -0 0 1 1 -1 2 5 4 3 3 5 5 6 9 7 8 8 9 11 12 13 14 12 13 12 13 14 15 15 15 16 18 7 8 12 9 8 7
2 1 2 2 2 1 1 1 0 0 0 1 2 -1 -1 4 4 1 2 1 1 2 5 5 7 8 7 10 10 11 13 11 12 15 9 14 12 13 13 13 8 7 8 7 7 8 8